Regional Weather Roundup
Issued by NWS

Home | Current Version | Previous Version | Graphics & Text | Print | Product List | Glossary Off
Versions: 1 2 3 4 5 6 7 8 9 10 11 12 13 14 15 16 17 18 19 20 21 22 23 24 25 26 27 28 29 30 31 32 33 34 35 36 37 38 39 40 41 42 43 44 45 46 47 48 49 50

000
ASUS44 KMEG 051010
RWRTN
TENNESSEE HOURLY STATE WEATHER ROUNDUP
NATIONAL WEATHER SERVICE MEMPHIS TN
500 AM CDT WED AUG 05 2015

TNZ002-004-019-021-049-052-054-088>092-051100-
WEST TENNESSEE

CITY           SKY/WX    TMP DP  RH WIND       PRES   REMARKS
MEMPHIS INTL   MOCLDY    82  69  64 S7        29.95F
NWS MEMPHIS      N/A     78 N/A N/A MISG        N/A
JACKSON        PTCLDY    74  71  91 CALM      29.97S
DYERSBURG        N/A    N/A N/A N/A MISG        N/A
UNION CITY     CLEAR    N/A N/A N/A CALM      29.95S
PARIS          CLEAR     75  72  88 SE3       29.98S
LEXINGTON      CLEAR     73  73 100 CALM      29.98S
$$

TNZ008-025-027-028-033-062-065-066-051100-
NORTH MIDDLE TENNESSEE

CITY           SKY/WX    TMP DP  RH WIND       PRES   REMARKS
NASHVILLE      MOCLDY    75  71  87 S3        30.00S
CLARKSVILLE    CLOUDY    72  69  90 CALM      29.99S
SMYRNA         MOCLDY    73  72  97 CALM      30.01S
COOKEVILLE     CLEAR     72  72 100 CALM      30.03S
CROSSVILLE     MOCLDY    70  66  87 CALM      30.09S
$$

TNZ061-075-076-078-094-096-097-051100-
SOUTH MIDDLE TENNESSEE

CITY           SKY/WX    TMP DP  RH WIND       PRES   REMARKS
FAYETTEVILLE     N/A     72  68  88 CALM      30.02S
TULLAHOMA      PTCLDY    73  70  88 CALM      30.04F
WINCHESTER     PTCLDY    72  70  94 CALM      30.03S
MCMINNVILLE    CLEAR     72  72 100 N5        30.04S
COLUMBIA       CLEAR     73  73 100 CALM      30.00F
SHELBYVILLE    CLEAR     73  73 100 CALM      30.03S
$$

TNZ017-018-042-046-047-051100-
NORTHEAST TENNESSEE

CITY           SKY/WX    TMP DP  RH WIND       PRES   REMARKS
TRI CITIES     MOCLDY    65  64  97 CALM      30.08R FOG
ELIZABETHTON   SUNNY     63  61  94 NE5       30.09S
$$

TNZ012-013-036-069-073-074-051100-
CENTRAL EAST TENNESSEE

CITY           SKY/WX    TMP DP  RH WIND       PRES   REMARKS
KNOXVILLE      CLOUDY    72  65  78 N5        30.03R
OAK RIDGE      CLOUDY    73  68  84 CALM      30.05S
GATLINBURG     SUNNY     66  63  88 CALM      30.03S
MORRISTOWN     SUNNY     68  66  94 NE3       30.07R
$$

TNZ083-085-099-051100-
SOUTHEAST TENNESSEE

CITY           SKY/WX    TMP DP  RH WIND       PRES   REMARKS
CHATTANOOGA    MOCLDY    78  70  76 NE5       30.02S
$$

SKY/WX REPORTED AS FAIR MEANS FEW OR NO CLOUDS BELOW
12 THOUSAND FEET.



USA.gov is the U.S. government's official web portal to all federal, state and local government web resources and services.